Time,TemperatureF,DewpointF,PressureIn,WindDirection,WindDirectionDegrees,WindSpeedMPH,WindSpeedGustMPH,Humidity,HourlyPrecipIn,Conditions,Clouds,dailyrainin,SoftwareType,DateUTC
2013-03-16 01:01:00,-999.0,-99.9,29.76,North,-999,-999.0,-999.0,-999,-99.99,,,0.01,weatherlink.com 1.10,2013-03-16 05:01:00,
2013-03-16 01:31:00,-999.0,-99.9,29.74,North,-999,-999.0,-999.0,-999,-99.99,,,0.00,weatherlink.com 1.10,2013-03-16 05:31:00,
2013-03-16 01:46:00,-999.0,-99.9,29.77,North,-999,-999.0,-999.0,-999,-99.99,,,0.00,weatherlink.com 1.10,2013-03-16 05:46:00,
2013-03-16 02:01:00,24.0,19.0,29.78,NW,304,1.0,-999.0,82,-99.99,,,0.00,weatherlink.com 1.10,2013-03-16 06:01:00,
2013-03-16 02:16:00,24.0,19.0,29.79,NW,304,0.0,-999.0,82,-99.99,,,0.00,weatherlink.com 1.10,2013-03-16 06:16:00,
2013-03-16 02:31:00,22.7,18.0,29.79,NW,304,0.0,-999.0,83,-99.99,,,0.00,weatherlink.com 1.10,2013-03-16 06:31:00,
2013-03-16 02:46:00,22.8,18.0,29.80,NW,304,0.0,-999.0,82,-99.99,,,0.00,weatherlink.com 1.10,2013-03-16 06:46:00,
2013-03-16 03:01:00,-999.0,-99.9,29.80,North,-999,-999.0,-999.0,-999,-99.99,,,0.00,weatherlink.com 1.10,2013-03-16 07:01:00,
2013-03-16 03:16:00,23.8,18.0,29.80,North,352,5.0,-999.0,79,-99.99,,,0.00,weatherlink.com 1.10,2013-03-16 07:16:00,
2013-03-16 03:31:00,23.1,18.0,29.81,North,358,6.0,-999.0,79,-99.99,,,0.00,weatherlink.com 1.10,2013-03-16 07:31:00,
2013-03-16 03:46:00,-999.0,-99.9,29.81,North,-999,-999.0,-999.0,-999,-99.99,,,0.00,weatherlink.com 1.10,2013-03-16 07:46:00,
2013-03-16 04:01:00,23.4,-99.9,29.81,NW,312,2.0,-999.0,-999,-99.99,,,0.00,weatherlink.com 1.10,2013-03-16 08:01:00,
2013-03-16 04:16:00,22.7,17.0,29.82,NW,312,3.0,-999.0,78,-99.99,,,0.00,weatherlink.com 1.10,2013-03-16 08:16:00,
2013-03-16 04:31:00,22.5,17.0,29.82,North,356,8.0,-999.0,79,-99.99,,,0.00,weatherlink.com 1.10,2013-03-16 08:31:00,
2013-03-16 04:46:00,23.0,17.0,29.82,North,359,6.0,-999.0,77,-99.99,,,0.00,weatherlink.com 1.10,2013-03-16 08:46:00,
2013-03-16 05:01:00,23.1,16.0,29.82,North,351,5.0,-999.0,75,-99.99,,,0.00,weatherlink.com 1.10,2013-03-16 09:01:00,
2013-03-16 05:16:00,23.8,17.0,29.83,North,359,13.0,-999.0,74,-99.99,,,0.00,weatherlink.com 1.10,2013-03-16 09:16:00,
2013-03-16 05:32:00,23.5,16.0,29.83,North,352,12.0,-999.0,73,-99.99,,,0.00,weatherlink.com 1.10,2013-03-16 09:32:00,
2013-03-16 05:47:00,23.0,16.0,29.84,NNW,336,4.0,-999.0,73,-99.99,,,0.00,weatherlink.com 1.10,2013-03-16 09:47:00,
2013-03-16 06:02:00,22.5,15.0,29.85,North,0,15.0,-999.0,74,-99.99,,,0.00,weatherlink.com 1.10,2013-03-16 10:02:00,
2013-03-16 06:17:00,22.3,15.0,29.84,North,357,4.0,-999.0,74,-99.99,,,0.00,weatherlink.com 1.10,2013-03-16 10:17:00,
2013-03-16 06:32:00,21.8,15.0,29.85,North,9,3.0,-999.0,75,-99.99,,,0.00,weatherlink.com 1.10,2013-03-16 10:32:00,
2013-03-16 06:47:00,21.6,15.0,29.85,NW,319,8.0,-999.0,75,-99.99,,,0.00,weatherlink.com 1.10,2013-03-16 10:47:00,
2013-03-16 07:02:00,21.4,15.0,29.85,NNE,18,3.0,-999.0,75,-99.99,,,0.00,weatherlink.com 1.10,2013-03-16 11:02:00,
2013-03-16 07:17:00,21.2,14.0,29.86,North,1,4.0,-999.0,75,-99.99,,,0.00,weatherlink.com 1.10,2013-03-16 11:17:00,
2013-03-16 07:32:00,21.3,15.0,29.86,NNE,32,5.0,-999.0,77,-99.99,,,0.00,weatherlink.com 1.10,2013-03-16 11:32:00,
2013-03-16 07:47:00,22.1,16.0,29.86,NE,37,9.0,-999.0,76,-99.99,,,0.00,weatherlink.com 1.10,2013-03-16 11:47:00,
2013-03-16 08:02:00,22.5,15.0,29.86,NNE,21,6.0,-999.0,73,-99.99,,,0.00,weatherlink.com 1.10,2013-03-16 12:02:00,
2013-03-16 08:32:00,22.8,15.0,29.87,NNE,20,4.0,-999.0,71,-99.99,,,0.00,weatherlink.com 1.10,2013-03-16 12:32:00,
2013-03-16 08:47:00,23.3,15.0,29.88,North,1,12.0,-999.0,71,-99.99,,,0.00,weatherlink.com 1.10,2013-03-16 12:47:00,
2013-03-16 09:02:00,23.3,15.0,29.88,North,6,7.0,-999.0,71,-99.99,,,0.00,weatherlink.com 1.10,2013-03-16 13:02:00,
2013-03-16 09:17:00,-999.0,-99.9,29.89,North,-999,-999.0,-999.0,-999,-99.99,,,0.00,weatherlink.com 1.10,2013-03-16 13:17:00,
2013-03-16 09:32:00,-999.0,-99.9,29.88,North,-999,-999.0,-999.0,-999,-99.99,,,0.00,weatherlink.com 1.10,2013-03-16 13:32:00,
2013-03-16 09:47:00,-999.0,-99.9,29.88,North,-999,-999.0,-999.0,-999,-99.99,,,0.00,weatherlink.com 1.10,2013-03-16 13:47:00,
2013-03-16 10:02:00,-999.0,-99.9,29.88,North,-999,-999.0,-999.0,-999,-99.99,,,0.00,weatherlink.com 1.10,2013-03-16 14:02:00,
2013-03-16 10:17:00,24.9,14.0,29.88,North,1,10.0,-999.0,64,-99.99,,,0.00,weatherlink.com 1.10,2013-03-16 14:17:00,
2013-03-16 10:32:00,24.7,14.0,29.88,NNE,20,5.0,-999.0,64,-99.99,,,0.00,weatherlink.com 1.10,2013-03-16 14:32:00,
2013-03-16 10:47:00,-999.0,-99.9,29.88,North,-999,-999.0,-999.0,-999,-99.99,,,0.00,weatherlink.com 1.10,2013-03-16 14:47:00,
2013-03-16 11:02:00,-999.0,-99.9,29.88,North,-999,-999.0,-999.0,-999,-99.99,,,0.00,weatherlink.com 1.10,2013-03-16 15:02:00,
2013-03-16 11:17:00,-999.0,-99.9,29.88,North,-999,-999.0,-999.0,-999,-99.99,,,0.00,weatherlink.com 1.10,2013-03-16 15:17:00,
2013-03-16 11:33:00,-999.0,-99.9,29.88,North,-999,-999.0,-999.0,-999,-99.99,,,0.00,weatherlink.com 1.10,2013-03-16 15:33:00,
2013-03-16 11:48:00,-999.0,-99.9,29.87,North,-999,-999.0,-999.0,-999,-99.99,,,0.00,weatherlink.com 1.10,2013-03-16 15:48:00,
2013-03-16 12:03:00,-999.0,-99.9,29.87,North,-999,-999.0,-999.0,-999,-99.99,,,0.00,weatherlink.com 1.10,2013-03-16 16:03:00,
2013-03-16 12:18:00,-999.0,-99.9,29.87,North,-999,-999.0,-999.0,-999,-99.99,,,0.00,weatherlink.com 1.10,2013-03-16 16:18:00,
2013-03-16 12:33:00,-999.0,-99.9,29.86,North,-999,-999.0,-999.0,-999,-99.99,,,0.00,weatherlink.com 1.10,2013-03-16 16:33:00,
2013-03-16 12:48:00,-999.0,-99.9,29.84,North,-999,-999.0,-999.0,-999,-99.99,,,0.00,weatherlink.com 1.10,2013-03-16 16:48:00,
2013-03-16 13:03:00,-999.0,-99.9,29.84,North,-999,-999.0,-999.0,-999,-99.99,,,0.00,weatherlink.com 1.10,2013-03-16 17:03:00,
2013-03-16 13:18:00,-999.0,-99.9,29.83,North,-999,-999.0,-999.0,-999,-99.99,,,0.00,weatherlink.com 1.10,2013-03-16 17:18:00,
2013-03-16 13:33:00,27.9,16.0,29.83,NW,318,2.0,-999.0,62,-99.99,,,0.00,weatherlink.com 1.10,2013-03-16 17:33:00,
2013-03-16 13:48:00,28.0,17.0,29.87,North,358,4.0,-999.0,63,-99.99,,,0.00,weatherlink.com 1.10,2013-03-16 17:48:00,
2013-03-16 14:03:00,28.1,16.0,29.86,NNW,337,3.0,-999.0,62,-99.99,,,0.00,weatherlink.com 1.10,2013-03-16 18:03:00,
2013-03-16 14:18:00,27.9,15.0,29.86,SW,225,3.0,-999.0,58,-99.99,,,0.00,weatherlink.com 1.10,2013-03-16 18:18:00,
2013-03-16 14:33:00,27.8,15.0,29.85,West,269,3.0,-999.0,60,-99.99,,,0.00,weatherlink.com 1.10,2013-03-16 18:33:00,
2013-03-16 14:48:00,28.1,14.0,29.85,SW,214,0.0,-999.0,57,-99.99,,,0.00,weatherlink.com 1.10,2013-03-16 18:48:00,
2013-03-16 15:03:00,28.2,15.0,29.85,SW,223,3.0,-999.0,59,-99.99,,,0.00,weatherlink.com 1.10,2013-03-16 19:03:00,
2013-03-16 15:18:00,28.5,17.0,29.85,SW,224,2.0,-999.0,62,-99.99,,,0.00,weatherlink.com 1.10,2013-03-16 19:18:00,
2013-03-16 15:33:00,29.8,17.0,29.84,SW,221,1.0,-999.0,58,-99.99,,,0.00,weatherlink.com 1.10,2013-03-16 19:33:00,
2013-03-16 15:48:00,30.5,18.0,29.84,North,8,3.0,-999.0,60,-99.99,,,0.00,weatherlink.com 1.10,2013-03-16 19:48:00,
2013-03-16 16:03:00,29.7,17.0,29.82,NE,40,3.0,-999.0,60,-99.99,,,0.00,weatherlink.com 1.10,2013-03-16 20:03:00,
2013-03-16 16:18:00,30.5,18.0,29.82,NE,40,6.0,-999.0,59,-99.99,,,0.00,weatherlink.com 1.10,2013-03-16 20:18:00,
2013-03-16 16:33:00,30.6,18.0,29.82,North,6,2.0,-999.0,59,-99.99,,,0.00,weatherlink.com 1.10,2013-03-16 20:33:00,
2013-03-16 16:48:00,29.7,17.0,29.82,NNE,30,1.0,-999.0,59,-99.99,,,0.00,weatherlink.com 1.10,2013-03-16 20:48:00,
2013-03-16 17:03:00,29.3,17.0,29.82,NNW,333,2.0,-999.0,60,-99.99,,,0.00,weatherlink.com 1.10,2013-03-16 21:03:00,
2013-03-16 17:18:00,29.1,18.0,29.82,North,1,3.0,-999.0,63,-99.99,,,0.00,weatherlink.com 1.10,2013-03-16 21:18:00,
2013-03-16 17:33:00,29.1,17.0,29.82,NNW,342,3.0,-999.0,61,-99.99,,,0.00,weatherlink.com 1.10,2013-03-16 21:33:00,
2013-03-16 17:48:00,29.0,18.0,29.83,North,0,4.0,-999.0,63,-99.99,,,0.00,weatherlink.com 1.10,2013-03-16 21:48:00,
2013-03-16 18:03:00,28.7,18.0,29.83,North,4,5.0,-999.0,64,-99.99,,,0.00,weatherlink.com 1.10,2013-03-16 22:03:00,
2013-03-16 18:18:00,28.5,18.0,29.83,North,0,4.0,-999.0,64,-99.99,,,0.00,weatherlink.com 1.10,2013-03-16 22:18:00,
2013-03-16 18:33:00,-999.0,-99.9,29.83,North,-999,-999.0,-999.0,-999,-99.99,,,0.00,weatherlink.com 1.10,2013-03-16 22:33:00,
2013-03-16 18:48:00,-999.0,-99.9,29.84,North,-999,-999.0,-999.0,-999,-99.99,,,0.00,weatherlink.com 1.10,2013-03-16 22:48:00,
2013-03-16 19:03:00,-999.0,-99.9,29.84,North,-999,-999.0,-999.0,-999,-99.99,,,0.00,weatherlink.com 1.10,2013-03-16 23:03:00,
2013-03-16 19:18:00,-999.0,-99.9,29.84,North,-999,-999.0,-999.0,-999,-99.99,,,0.00,weatherlink.com 1.10,2013-03-16 23:18:00,
2013-03-16 19:34:00,26.9,18.0,29.84,North,352,8.0,-999.0,70,-99.99,,,0.00,weatherlink.com 1.10,2013-03-16 23:34:00,
2013-03-16 19:49:00,-999.0,-99.9,29.86,North,-999,-999.0,-999.0,-999,-99.99,,,0.00,weatherlink.com 1.10,2013-03-16 23:49:00,
2013-03-16 20:04:00,26.2,19.0,29.87,NNW,334,3.0,-999.0,73,-99.99,,,0.00,weatherlink.com 1.10,2013-03-17 00:04:00,
2013-03-16 20:19:00,25.7,18.0,29.87,NNW,340,3.0,-999.0,73,-99.99,,,0.00,weatherlink.com 1.10,2013-03-17 00:19:00,
2013-03-16 20:34:00,25.4,18.0,29.88,NNW,338,5.0,-999.0,74,-99.99,,,0.00,weatherlink.com 1.10,2013-03-17 00:34:00,
2013-03-16 20:49:00,25.1,18.0,29.88,NNW,328,3.0,-999.0,73,-99.99,,,0.00,weatherlink.com 1.10,2013-03-17 00:49:00,
2013-03-16 21:04:00,24.8,18.0,29.88,NNW,340,2.0,-999.0,74,-99.99,,,0.00,weatherlink.com 1.10,2013-03-17 01:04:00,
2013-03-16 21:19:00,24.4,17.0,29.88,NNW,347,3.0,-999.0,73,-99.99,,,0.00,weatherlink.com 1.10,2013-03-17 01:19:00,
2013-03-16 21:34:00,24.1,17.0,29.89,North,357,5.0,-999.0,73,-99.99,,,0.00,weatherlink.com 1.10,2013-03-17 01:34:00,
2013-03-16 21:49:00,23.5,16.0,29.90,NW,314,3.0,-999.0,73,-99.99,,,0.00,weatherlink.com 1.10,2013-03-17 01:49:00,
2013-03-16 22:04:00,23.2,16.0,29.90,NNW,335,2.0,-999.0,73,-99.99,,,0.00,weatherlink.com 1.10,2013-03-17 02:04:00,
2013-03-16 22:19:00,22.9,15.0,29.90,North,0,3.0,-999.0,73,-99.99,,,0.00,weatherlink.com 1.10,2013-03-17 02:19:00,
2013-03-16 22:34:00,22.6,15.0,29.91,NNW,340,1.0,-999.0,72,-99.99,,,0.00,weatherlink.com 1.10,2013-03-17 02:34:00,
2013-03-16 22:49:00,22.4,15.0,29.92,NNW,335,3.0,-999.0,73,-99.99,,,0.00,weatherlink.com 1.10,2013-03-17 02:49:00,
2013-03-16 23:04:00,21.8,15.0,29.92,NNW,335,2.0,-999.0,74,-99.99,,,0.00,weatherlink.com 1.10,2013-03-17 03:04:00,
2013-03-16 23:19:00,21.4,15.0,29.92,NNW,335,3.0,-999.0,75,-99.99,,,0.00,weatherlink.com 1.10,2013-03-17 03:19:00,
2013-03-16 23:34:00,21.1,14.0,29.92,NNW,335,1.0,-999.0,75,-99.99,,,0.00,weatherlink.com 1.10,2013-03-17 03:34:00,
2013-03-16 23:49:00,21.1,15.0,29.93,NNW,335,1.0,-999.0,76,-99.99,,,0.00,weatherlink.com 1.10,2013-03-17 03:49:00,